IGO5326 VABB-VOHS

Flight info

Callsign IGO5326
Flight time 0h 52m
Altitude 35000
Route VEVAK2A PPN W28 PONIP NAMSA8
Aircraft A21N/M-SDE2E3FGHIRWXY/LB1

Departure

Time 2026-04-28 14:20
Airport Chhatrapati Shivaji Maharaj International Airport (VABB)

Arrival

Time 2026-04-28 15:12
Airport Rajiv Gandhi International Airport (VOHS)
Time Latitude Longitude Altitude Speed Heading
2026-04-28 14:00 19.09156 72.85564 31 ft 0 kts
2026-04-28 14:09 19.09155 72.85564 31 ft 0 kts
2026-04-28 14:10 19.09140 72.85564 31 ft 2 kts
2026-04-28 14:10 19.09126 72.85560 30 ft 2 kts 26°
2026-04-28 14:10 19.09113 72.85551 30 ft 2 kts 42°
2026-04-28 14:10 19.09103 72.85539 29 ft 2 kts 58°
2026-04-28 14:11 19.09096 72.85525 29 ft 2 kts 74°
2026-04-28 14:11 19.09094 72.85513 29 ft 0 kts 87°
2026-04-28 14:11 19.09094 72.85505 29 ft 0 kts 90°
2026-04-28 14:13 19.09094 72.85506 29 ft 0 kts 89°
2026-04-28 14:13 19.09094 72.85515 29 ft 2 kts 88°
2026-04-28 14:13 19.09095 72.85539 29 ft 4 kts 89°
2026-04-28 14:13 19.09092 72.85579 29 ft 6 kts 110°
2026-04-28 14:14 19.09050 72.85611 28 ft 9 kts 145°
2026-04-28 14:14 19.09029 72.85676 29 ft 10 kts 91°
2026-04-28 14:14 19.09029 72.85757 29 ft 12 kts 89°
2026-04-28 14:14 19.09030 72.85853 29 ft 13 kts 89°
2026-04-28 14:15 19.09031 72.85950 31 ft 13 kts 89°
2026-04-28 14:15 19.09032 72.86052 31 ft 14 kts 89°
2026-04-28 14:15 19.09034 72.86165 31 ft 15 kts 89°
2026-04-28 14:15 19.09035 72.86287 31 ft 17 kts 89°
2026-04-28 14:16 19.09037 72.86416 31 ft 18 kts 88°
2026-04-28 14:16 19.09039 72.86555 31 ft 19 kts 89°
2026-04-28 14:16 19.09042 72.86702 31 ft 20 kts 89°
2026-04-28 14:16 19.09044 72.86853 30 ft 21 kts 89°
2026-04-28 14:17 19.09048 72.87013 28 ft 22 kts 89°
2026-04-28 14:17 19.09051 72.87182 28 ft 22 kts 89°
2026-04-28 14:17 19.09055 72.87336 29 ft 20 kts 89°
2026-04-28 14:17 19.09057 72.87486 29 ft 20 kts 85°
2026-04-28 14:18 19.09058 72.87640 29 ft 20 kts 86°
2026-04-28 14:18 19.09054 72.87771 30 ft 13 kts 110°
2026-04-28 14:18 19.09004 72.87808 30 ft 7 kts 177°
2026-04-28 14:18 19.08944 72.87810 30 ft 9 kts 181°
2026-04-28 14:19 19.08892 72.87769 30 ft 11 kts 246°
2026-04-28 14:19 19.08880 72.87682 28 ft 13 kts 269°
2026-04-28 14:19 19.08873 72.87461 27 ft 60 kts 272°
2026-04-28 14:19 19.08869 72.86774 32 ft 123 kts 269°
2026-04-28 14:20 19.08853 72.85703 150 ft 161 kts 269°
2026-04-28 14:20 19.08859 72.84566 756 ft 155 kts 266°
2026-04-28 14:20 19.08850 72.83385 1159 ft 166 kts 269°
2026-04-28 14:20 19.08800 72.82107 1414 ft 187 kts 267°
2026-04-28 14:21 19.08295 72.80750 1596 ft 216 kts 231°
2026-04-28 14:21 19.06888 72.79962 1707 ft 250 kts 189°
2026-04-28 14:21 19.05112 72.80263 1852 ft 270 kts 153°
2026-04-28 14:21 19.03749 72.81655 2011 ft 272 kts 116°
2026-04-28 14:22 19.03234 72.83603 2308 ft 277 kts 98°
2026-04-28 14:22 19.02863 72.85628 3061 ft 279 kts 101°
2026-04-28 14:22 19.02373 72.87602 3850 ft 280 kts 104°
2026-04-28 14:22 19.01763 72.89566 4589 ft 283 kts 108°
2026-04-28 14:23 19.01066 72.91519 5307 ft 287 kts 109°
2026-04-28 14:23 19.00310 72.93476 6048 ft 289 kts 111°
2026-04-28 14:23 18.99531 72.95409 6751 ft 292 kts 112°
2026-04-28 14:23 18.98716 72.97390 7432 ft 295 kts 112°
2026-04-28 14:24 18.97884 72.99381 8122 ft 296 kts 114°
2026-04-28 14:24 18.97044 73.01373 8776 ft 298 kts 114°
2026-04-28 14:24 18.96200 73.03367 9408 ft 300 kts 115°
2026-04-28 14:24 18.95348 73.05366 10026 ft 302 kts 115°
2026-04-28 14:25 18.94467 73.07426 10395 ft 314 kts 115°
2026-04-28 14:25 18.93542 73.09586 10664 ft 329 kts 115°
2026-04-28 14:25 18.92578 73.11841 10920 ft 344 kts 115°
2026-04-28 14:25 18.91565 73.14208 11168 ft 358 kts 115°
2026-04-28 14:26 18.90534 73.16615 11399 ft 371 kts 115°
2026-04-28 14:26 18.89447 73.19152 11622 ft 384 kts 115°
2026-04-28 14:26 18.88316 73.21767 11856 ft 395 kts 115°
2026-04-28 14:26 18.87180 73.24392 12297 ft 399 kts 115°
2026-04-28 14:27 18.86019 73.27085 12791 ft 401 kts 115°
2026-04-28 14:27 18.84872 73.29755 13282 ft 403 kts 115°
2026-04-28 14:27 18.83706 73.32468 13758 ft 405 kts 115°
2026-04-28 14:27 18.82552 73.35156 14210 ft 408 kts 114°
2026-04-28 14:28 18.81382 73.37882 14678 ft 410 kts 114°
2026-04-28 14:28 18.80191 73.40658 15094 ft 413 kts 114°
2026-04-28 14:28 18.79004 73.43425 15528 ft 415 kts 114°
2026-04-28 14:28 18.77820 73.46183 15944 ft 417 kts 114°
2026-04-28 14:29 18.76615 73.48992 16378 ft 419 kts 113°
2026-04-28 14:29 18.75411 73.51798 16759 ft 421 kts 113°
2026-04-28 14:29 18.74200 73.54616 17126 ft 424 kts 113°
2026-04-28 14:29 18.72990 73.57431 17471 ft 426 kts 113°
2026-04-28 14:30 18.71771 73.60272 17817 ft 429 kts 113°
2026-04-28 14:30 18.70527 73.63169 18152 ft 432 kts 113°
2026-04-28 14:30 18.69291 73.66041 18470 ft 435 kts 113°
2026-04-28 14:30 18.68037 73.68970 18771 ft 438 kts 113°
2026-04-28 14:31 18.66788 73.71884 19088 ft 441 kts 114°
2026-04-28 14:31 18.65507 73.74865 19426 ft 443 kts 114°
2026-04-28 14:31 18.64245 73.77795 19736 ft 446 kts 114°
2026-04-28 14:31 18.62951 73.80795 20036 ft 449 kts 114°
2026-04-28 14:32 18.61656 73.83799 20355 ft 451 kts 114°
2026-04-28 14:32 18.60349 73.86826 20672 ft 454 kts 114°
2026-04-28 14:32 18.59046 73.89841 20967 ft 456 kts 114°
2026-04-28 14:32 18.57732 73.92876 21266 ft 459 kts 114°
2026-04-28 14:33 18.56401 73.95948 21548 ft 462 kts 114°
2026-04-28 14:33 18.55067 73.99025 21812 ft 465 kts 114°
2026-04-28 14:33 18.53718 74.02138 22103 ft 467 kts 114°
2026-04-28 14:33 18.52369 74.05251 22395 ft 469 kts 114°
2026-04-28 14:34 18.49650 74.11524 22919 ft 474 kts 114°
2026-04-28 14:34 18.48274 74.14697 23172 ft 477 kts 114°
2026-04-28 14:34 18.46908 74.17848 23391 ft 480 kts 114°
2026-04-28 14:35 18.45511 74.21066 23654 ft 482 kts 114°
2026-04-28 14:35 18.44107 74.24297 23907 ft 484 kts 115°
2026-04-28 14:35 18.42718 74.27493 24113 ft 487 kts 115°
2026-04-28 14:35 18.41305 74.30742 24325 ft 489 kts 115°
2026-04-28 14:36 18.39883 74.34012 24544 ft 492 kts 115°
2026-04-28 14:36 18.38452 74.37301 24742 ft 495 kts 115°
2026-04-28 14:36 18.37015 74.40601 24952 ft 497 kts 115°
2026-04-28 14:36 18.35590 74.43871 25153 ft 499 kts 115°
2026-04-28 14:37 18.34129 74.47224 25369 ft 501 kts 115°
2026-04-28 14:37 18.32691 74.50525 25661 ft 501 kts 115°
2026-04-28 14:37 18.31227 74.53881 25983 ft 500 kts 115°
2026-04-28 14:37 18.29783 74.57188 26262 ft 500 kts 115°
2026-04-28 14:38 18.28334 74.60512 26538 ft 501 kts 115°
2026-04-28 14:38 18.26879 74.63844 26835 ft 501 kts 115°
2026-04-28 14:38 18.25432 74.67156 27120 ft 501 kts 115°
2026-04-28 14:38 18.23992 74.70463 27383 ft 502 kts 115°
2026-04-28 14:39 18.22533 74.73829 27664 ft 502 kts 115°
2026-04-28 14:39 18.21094 74.77161 27939 ft 502 kts 115°
2026-04-28 14:39 18.19649 74.80504 28221 ft 502 kts 115°
2026-04-28 14:39 18.18214 74.83825 28482 ft 503 kts 116°
2026-04-28 14:40 18.16761 74.87178 28735 ft 504 kts 116°
2026-04-28 14:40 18.15804 74.89385 28920 ft 504 kts 116°
2026-04-28 14:40 18.13865 74.93855 29312 ft 504 kts 116°
2026-04-28 14:40 18.12414 74.97199 29619 ft 504 kts 116°
2026-04-28 14:41 18.10959 75.00545 29912 ft 505 kts 116°
2026-04-28 14:41 18.09494 75.03918 30215 ft 505 kts 116°
2026-04-28 14:41 18.08053 75.07232 30495 ft 506 kts 116°
2026-04-28 14:41 18.06584 75.10606 30773 ft 506 kts 116°
2026-04-28 14:42 18.05109 75.13994 31075 ft 507 kts 116°
2026-04-28 14:42 18.03659 75.17325 31381 ft 507 kts 116°
2026-04-28 14:42 18.02201 75.20669 31682 ft 507 kts 116°
2026-04-28 14:42 18.00723 75.24059 31988 ft 507 kts 116°
2026-04-28 14:43 17.99259 75.27415 32290 ft 507 kts 116°
2026-04-28 14:43 17.97787 75.30785 32597 ft 507 kts 116°
2026-04-28 14:43 17.96322 75.34141 32916 ft 507 kts 116°
2026-04-28 14:43 17.94863 75.37477 33261 ft 507 kts 116°
2026-04-28 14:44 17.93398 75.40823 33588 ft 507 kts 116°
2026-04-28 14:44 17.91933 75.44172 33870 ft 507 kts 116°
2026-04-28 14:44 17.90449 75.47560 34167 ft 508 kts 116°
2026-04-28 14:44 17.88986 75.50887 34456 ft 508 kts 116°
2026-04-28 14:45 17.87500 75.54243 34711 ft 508 kts 116°
2026-04-28 14:45 17.86012 75.57603 34826 ft 510 kts 116°
2026-04-28 14:45 17.84522 75.60979 34837 ft 510 kts 115°
2026-04-28 14:46 17.81550 75.67746 34838 ft 510 kts 116°
2026-04-28 14:46 17.78586 75.74521 34833 ft 510 kts 116°
2026-04-28 14:47 17.75644 75.81226 34826 ft 510 kts 116°
2026-04-28 14:47 17.72661 75.88008 34827 ft 510 kts 116°
2026-04-28 14:48 17.69691 75.94749 34818 ft 510 kts 116°
2026-04-28 14:48 17.66728 76.01452 34813 ft 511 kts 116°
2026-04-28 14:49 17.63718 76.08180 34827 ft 510 kts 116°
2026-04-28 14:49 17.60703 76.14911 34839 ft 510 kts 116°
2026-04-28 14:50 17.57701 76.21621 34843 ft 511 kts 116°
2026-04-28 14:50 17.54676 76.28380 34849 ft 511 kts 116°
2026-04-28 14:51 17.51668 76.35098 34849 ft 512 kts 116°
2026-04-28 14:51 17.48648 76.41833 34858 ft 511 kts 116°
2026-04-28 14:51 17.47137 76.45200 34616 ft 511 kts 117°
2026-04-28 14:52 17.45633 76.48551 34033 ft 510 kts 117°
2026-04-28 14:52 17.44132 76.51890 33363 ft 507 kts 117°
2026-04-28 14:52 17.42631 76.55237 32651 ft 506 kts 117°
2026-04-28 14:52 17.41134 76.58562 31979 ft 508 kts 117°
2026-04-28 14:53 17.39645 76.61870 31243 ft 509 kts 117°
2026-04-28 14:53 17.38122 76.65256 30445 ft 510 kts 117°
2026-04-28 14:53 17.36621 76.68608 29637 ft 511 kts 117°
2026-04-28 14:53 17.35111 76.71974 28498 ft 519 kts 117°
2026-04-28 14:54 17.33579 76.75380 27171 ft 529 kts 117°
2026-04-28 14:54 17.32250 76.78961 26026 ft 533 kts 109°
2026-04-28 14:54 17.31365 76.82732 25247 ft 527 kts 101°
2026-04-28 14:54 17.30944 76.86517 24465 ft 521 kts 94°
2026-04-28 14:55 17.30741 76.90230 23755 ft 514 kts 92°
2026-04-28 14:55 17.30587 76.93917 23008 ft 507 kts 92°
2026-04-28 14:55 17.30437 76.97598 22236 ft 501 kts 92°
2026-04-28 14:55 17.30281 77.01196 21594 ft 493 kts 92°
2026-04-28 14:56 17.30117 77.04712 21023 ft 484 kts 92°
2026-04-28 14:56 17.29947 77.08184 20438 ft 476 kts 92°
2026-04-28 14:56 17.29777 77.11593 19865 ft 468 kts 92°
2026-04-28 14:56 17.29604 77.14976 19331 ft 461 kts 92°
2026-04-28 14:57 17.29435 77.18308 18778 ft 454 kts 92°
2026-04-28 14:57 17.29324 77.20459 18444 ft 449 kts 92°
2026-04-28 14:57 17.29100 77.24773 17736 ft 441 kts 92°
2026-04-28 14:57 17.28937 77.27921 17222 ft 435 kts 92°
2026-04-28 14:58 17.28772 77.31082 16763 ft 428 kts 92°
2026-04-28 14:58 17.28612 77.34137 16326 ft 420 kts 91°
2026-04-28 14:58 17.28454 77.37135 15962 ft 411 kts 91°
2026-04-28 14:58 17.28297 77.40090 15561 ft 401 kts 91°
2026-04-28 14:59 17.28147 77.42938 15131 ft 390 kts 91°
2026-04-28 14:59 17.27999 77.45749 14678 ft 376 kts 90°
2026-04-28 14:59 17.27856 77.48419 14259 ft 363 kts 90°
2026-04-28 14:59 17.27719 77.50984 13860 ft 350 kts 90°
2026-04-28 15:00 17.27589 77.53469 13482 ft 337 kts 90°
2026-04-28 15:00 17.27460 77.55893 13148 ft 329 kts 90°
2026-04-28 15:00 17.27332 77.58263 12855 ft 322 kts 89°
2026-04-28 15:00 17.27212 77.60566 12594 ft 315 kts 89°
2026-04-28 15:01 17.27092 77.62841 12400 ft 314 kts 89°
2026-04-28 15:01 17.26975 77.65131 12369 ft 320 kts 90°
2026-04-28 15:01 17.26853 77.67460 12376 ft 321 kts 90°
2026-04-28 15:01 17.26724 77.69795 12381 ft 321 kts 90°
2026-04-28 15:02 17.26597 77.72127 12379 ft 321 kts 90°
2026-04-28 15:02 17.26472 77.74441 12372 ft 316 kts 90°
2026-04-28 15:02 17.26317 77.76702 12326 ft 306 kts 91°
2026-04-28 15:02 17.26142 77.78909 12209 ft 302 kts 91°
2026-04-28 15:03 17.25972 77.81094 12050 ft 305 kts 91°
2026-04-28 15:03 17.25798 77.83297 11857 ft 307 kts 92°
2026-04-28 15:03 17.25623 77.85536 11620 ft 306 kts 91°
2026-04-28 15:03 17.25452 77.87728 11340 ft 304 kts 92°
2026-04-28 15:04 17.25280 77.89923 10962 ft 302 kts 92°
2026-04-28 15:04 17.25109 77.92104 10662 ft 297 kts 91°
2026-04-28 15:04 17.24942 77.94228 10362 ft 293 kts 91°
2026-04-28 15:04 17.24777 77.96339 10043 ft 289 kts 91°
2026-04-28 15:05 17.24600 77.98431 9688 ft 288 kts 92°
2026-04-28 15:05 17.24419 78.00487 9370 ft 283 kts 92°
2026-04-28 15:05 17.24240 78.02511 9029 ft 278 kts 92°
2026-04-28 15:05 17.24067 78.04488 8670 ft 273 kts 92°
2026-04-28 15:06 17.23896 78.06455 8281 ft 268 kts 93°
2026-04-28 15:06 17.23726 78.08373 7953 ft 260 kts 93°
2026-04-28 15:06 17.23391 78.10199 7637 ft 254 kts 104°
2026-04-28 15:06 17.22876 78.11912 7417 ft 240 kts 105°
2026-04-28 15:07 17.22537 78.13586 6957 ft 238 kts 95°
2026-04-28 15:07 17.22460 78.15339 6296 ft 243 kts 88°
2026-04-28 15:07 17.22506 78.17066 5937 ft 233 kts 86°
2026-04-28 15:07 17.22561 78.18723 5596 ft 225 kts 87°
2026-04-28 15:08 17.22601 78.20329 5249 ft 218 kts 88°
2026-04-28 15:08 17.22628 78.21890 4886 ft 211 kts 89°
2026-04-28 15:08 17.22648 78.23364 4616 ft 200 kts 90°
2026-04-28 15:08 17.22663 78.24799 4448 ft 195 kts 90°
2026-04-28 15:09 17.22678 78.26235 4430 ft 195 kts 91°
2026-04-28 15:09 17.22692 78.27646 4361 ft 195 kts 91°
2026-04-28 15:09 17.22708 78.29051 4147 ft 192 kts 91°
2026-04-28 15:09 17.22719 78.29983 3978 ft 186 kts 91°
2026-04-28 15:10 17.22742 78.31722 3665 ft 173 kts 92°
2026-04-28 15:10 17.22758 78.32944 3437 ft 161 kts 93°
2026-04-28 15:10 17.22773 78.34056 3222 ft 148 kts 93°
2026-04-28 15:10 17.22787 78.35124 3046 ft 146 kts 94°
2026-04-28 15:11 17.22798 78.36186 2877 ft 146 kts 94°
2026-04-28 15:11 17.22811 78.37237 2699 ft 146 kts 94°
2026-04-28 15:11 17.22825 78.38307 2520 ft 146 kts 94°
2026-04-28 15:11 17.22839 78.39369 2344 ft 147 kts 92°
2026-04-28 15:12 17.22855 78.40432 2168 ft 147 kts 92°
2026-04-28 15:12 17.22860 78.41499 1987 ft 148 kts 85°
2026-04-28 15:12 17.22880 78.42459 1982 ft 99 kts 88°
2026-04-28 15:12 17.22886 78.42925 1999 ft 33 kts 90°
2026-04-28 15:13 17.22891 78.43139 2008 ft 26 kts 84°
2026-04-28 15:13 17.22899 78.43316 2012 ft 22 kts 78°
2026-04-28 15:13 17.22948 78.43452 2018 ft 17 kts 62°
2026-04-28 15:13 17.23003 78.43552 2022 ft 13 kts 43°
2026-04-28 15:14 17.23065 78.43623 2024 ft 12 kts 49°
2026-04-28 15:14 17.23124 78.43687 2025 ft 11 kts 25°
2026-04-28 15:14 17.23208 78.43698 2024 ft 13 kts
2026-04-28 15:14 17.23303 78.43694 2022 ft 14 kts 333°
2026-04-28 15:15 17.23339 78.43593 2018 ft 15 kts 272°
2026-04-28 15:15 17.23369 78.43536 2015 ft 9 kts 344°
2026-04-28 15:15 17.23426 78.43533 2014 ft 0 kts 359°